• en France
  • Liste des pays
  • À 7 jours
  • Température de l'eau
  • Carte satellitaire
  • Carte météo
  • Widgets météo
  • user-avatar
    Se connecter

    Météo par heure à Ibigs

    Ce jour, 25 Février, Dimanche

    Heure Température Précipitation Vent Pression Humidité
    00:00 +18°C° 0,1 mm 1 m/s 649 mmHg 79%
    01:00 +16°C° 0,1 mm 0 m/s 649 mmHg 80%
    02:00 +16°C° 0 mm 0 m/s 649 mmHg 82%
    03:00 +16°C° 0 mm 0 m/s 649 mmHg 83%
    04:00 +15°C° 0 mm 0 m/s 649 mmHg 85%
    05:00 +16°C° 0 mm 0 m/s 649 mmHg 83%
    06:00 +16°C° 0 mm 0 m/s 650 mmHg 82%
    07:00 +16°C° 0 mm 0 m/s 650 mmHg 80%
    08:00 +20°C° 0 mm 1 m/s 651 mmHg 72%
    09:00 +22°C° 0 mm 1 m/s 651 mmHg 64%
    10:00 +24°C° 0 mm 1 m/s 652 mmHg 56%
    11:00 +25°C° 0,1 mm 1 m/s 652 mmHg 53%
    12:00 +26°C° 0,1 mm 1 m/s 651 mmHg 50%
    13:00 +27°C° 0,1 mm 1 m/s 651 mmHg 46%
    14:00 +27°C° 0,1 mm 2 m/s 651 mmHg 46%
    15:00 +27°C° 0,1 mm 2 m/s 650 mmHg 46%
    16:00 +27°C° 0,1 mm 2 m/s 650 mmHg 45%
    17:00 +25°C° 0,2 mm 2 m/s 649 mmHg 53%
    18:00 +23°C° 0,2 mm 1 m/s 649 mmHg 61%
    19:00 +21°C° 0,2 mm 1 m/s 649 mmHg 68%
    20:00 +20°C° 0,1 mm 1 m/s 649 mmHg 69%
    21:00 +20°C° 0,1 mm 1 m/s 650 mmHg 70%
    22:00 +19°C° 0,1 mm 1 m/s 650 mmHg 70%
    23:00 +19°C° 0 mm 1 m/s 650 mmHg 71%

    Demain, 26 Février, Lundi

    Heure Température Précipitation Vent Pression Humidité
    00:00 +18°C° 0 mm 1 m/s 650 mmHg 71%
    01:00 +18°C° 0 mm 1 m/s 650 mmHg 72%
    02:00 +18°C° 0 mm 1 m/s 650 mmHg 73%
    03:00 +16°C° 0 mm 1 m/s 649 mmHg 74%
    04:00 +16°C° 0 mm 1 m/s 649 mmHg 76%
    05:00 +16°C° 0 mm 1 m/s 650 mmHg 75%
    06:00 +16°C° 0 mm 0 m/s 650 mmHg 74%
    07:00 +16°C° 0 mm 0 m/s 650 mmHg 73%
    08:00 +20°C° 0 mm 1 m/s 651 mmHg 65%
    09:00 +23°C° 0 mm 1 m/s 652 mmHg 57%
    10:00 +26°C° 0 mm 1 m/s 653 mmHg 50%
    11:00 +26°C° 0 mm 2 m/s 652 mmHg 47%
    12:00 +27°C° 0 mm 2 m/s 652 mmHg 44%
    13:00 +28°C° 0 mm 2 m/s 651 mmHg 41%
    14:00 +28°C° 0 mm 2 m/s 650 mmHg 39%
    15:00 +28°C° 0 mm 2 m/s 650 mmHg 37%
    16:00 +28°C° 0 mm 2 m/s 649 mmHg 35%
    17:00 +26°C° 0,1 mm 2 m/s 649 mmHg 43%
    18:00 +23°C° 0,1 mm 2 m/s 649 mmHg 51%
    19:00 +21°C° 0,1 mm 1 m/s 649 mmHg 58%
    20:00 +20°C° 0 mm 1 m/s 649 mmHg 59%
    21:00 +20°C° 0 mm 1 m/s 650 mmHg 60%
    22:00 +19°C° 0 mm 1 m/s 650 mmHg 61%
    23:00 +19°C° 0 mm 1 m/s 650 mmHg 62%

    Après-demain, 27 Février, Mardi

    Heure Température Précipitation Vent Pression Humidité
    00:00 +19°C° 0 mm 1 m/s 650 mmHg 64%
    01:00 +18°C° 0 mm 1 m/s 649 mmHg 66%
    02:00 +18°C° 0 mm 1 m/s 649 mmHg 68%
    03:00 +18°C° 0 mm 1 m/s 649 mmHg 70%
    04:00 +18°C° 0 mm 1 m/s 648 mmHg 72%
    05:00 +18°C° 0 mm 1 m/s 649 mmHg 72%
    06:00 +18°C° 0 mm 1 m/s 649 mmHg 71%
    07:00 +19°C° 0 mm 1 m/s 650 mmHg 71%
    08:00 +21°C° 0 mm 1 m/s 651 mmHg 64%
    09:00 +23°C° 0 mm 1 m/s 651 mmHg 58%
    10:00 +25°C° 0 mm 1 m/s 652 mmHg 51%
    11:00 +26°C° 0 mm 1 m/s 652 mmHg 49%
    12:00 +27°C° 0 mm 1 m/s 651 mmHg 46%
    13:00 +28°C° 0 mm 2 m/s 650 mmHg 43%
    14:00 +28°C° 0 mm 2 m/s 650 mmHg 41%
    15:00 +28°C° 0 mm 2 m/s 649 mmHg 38%
    16:00 +28°C° 0 mm 2 m/s 648 mmHg 35%
    17:00 +26°C° 0 mm 2 m/s 648 mmHg 43%
    18:00 +23°C° 0 mm 2 m/s 648 mmHg 50%
    19:00 +21°C° 0 mm 1 m/s 648 mmHg 58%
    20:00 +21°C° 0 mm 1 m/s 648 mmHg 59%
    21:00 +20°C° 0 mm 1 m/s 649 mmHg 60%
    22:00 +19°C° 0 mm 1 m/s 650 mmHg 61%
    23:00 +19°C° 0 mm 1 m/s 649 mmHg 62%

    28 Février, Mercredi

    Heure Température Précipitation Vent Pression Humidité
    00:00 +19°C° 0 mm 1 m/s 649 mmHg 63%
    01:00 +19°C° 0 mm 1 m/s 649 mmHg 64%
    02:00 +18°C° 0 mm 1 m/s 648 mmHg 65%
    03:00 +18°C° 0 mm 1 m/s 648 mmHg 67%
    04:00 +18°C° 0 mm 1 m/s 648 mmHg 69%
    05:00 +18°C° 0 mm 1 m/s 648 mmHg 68%
    06:00 +18°C° 0 mm 1 m/s 649 mmHg 66%
    07:00 +19°C° 0 mm 1 m/s 649 mmHg 65%
    08:00 +21°C° 0 mm 1 m/s 650 mmHg 59%
    09:00 +24°C° 0 mm 1 m/s 651 mmHg 53%
    10:00 +26°C° 0 mm 1 m/s 652 mmHg 46%
    11:00 +27°C° 0 mm 1 m/s 651 mmHg 44%
    12:00 +28°C° 0 mm 2 m/s 650 mmHg 42%
    13:00 +29°C° 0 mm 2 m/s 650 mmHg 40%
    14:00 +29°C° 0,1 mm 2 m/s 649 mmHg 39%
    15:00 +29°C° 0,1 mm 2 m/s 649 mmHg 39%
    16:00 +29°C° 0,1 mm 2 m/s 648 mmHg 39%
    17:00 +26°C° 0,2 mm 2 m/s 648 mmHg 47%
    18:00 +24°C° 0,2 mm 1 m/s 648 mmHg 56%
    19:00 +21°C° 0,2 mm 1 m/s 648 mmHg 65%
    20:00 +21°C° 0,1 mm 1 m/s 649 mmHg 66%
    21:00 +20°C° 0,1 mm 1 m/s 649 mmHg 68%
    22:00 +20°C° 0,1 mm 1 m/s 650 mmHg 69%
    23:00 +20°C° 0,1 mm 1 m/s 649 mmHg 70%

    1 Mars, Jeudi

    Heure Température Précipitation Vent Pression Humidité
    00:00 +20°C° 0,1 mm 1 m/s 649 mmHg 71%
    01:00 +19°C° 0,1 mm 1 m/s 649 mmHg 72%
    02:00 +19°C° 0 mm 1 m/s 648 mmHg 74%
    03:00 +17°C° 0 mm 0 m/s 648 mmHg 76%
    04:00 +17°C° 0 mm 0 m/s 648 mmHg 78%
    05:00 +17°C° 0 mm 0 m/s 648 mmHg 78%
    06:00 +17°C° 0 mm 0 m/s 649 mmHg 79%
    07:00 +17°C° 0 mm 0 m/s 649 mmHg 79%
    08:00 +21°C° 0 mm 1 m/s 650 mmHg 72%
    09:00 +23°C° 0 mm 1 m/s 651 mmHg 66%
    10:00 +25°C° 0 mm 1 m/s 651 mmHg 59%
    11:00 +25°C° 0 mm 1 m/s 651 mmHg 56%
    12:00 +26°C° 0 mm 1 m/s 650 mmHg 52%
    13:00 +27°C° 0 mm 1 m/s 650 mmHg 49%
    14:00 +27°C° 0 mm 1 m/s 649 mmHg 48%
    15:00 +27°C° 0 mm 1 m/s 648 mmHg 47%
    16:00 +27°C° 0 mm 1 m/s 648 mmHg 46%
    17:00 +26°C° 0 mm 1 m/s 648 mmHg 51%
    18:00 +24°C° 0 mm 1 m/s 648 mmHg 57%
    19:00 +22°C° 0 mm 1 m/s 648 mmHg 62%
    20:00 +22°C° 0 mm 1 m/s 649 mmHg 64%
    21:00 +21°C° 0 mm 1 m/s 649 mmHg 65%
    22:00 +21°C° 0 mm 1 m/s 650 mmHg 67%
    23:00 +21°C° 0 mm 1 m/s 649 mmHg 68%

    2 Mars, Vendredi

    Heure Température Précipitation Vent Pression Humidité
    00:00 +20°C° 0 mm 1 m/s 649 mmHg 70%
    01:00 +20°C° 0 mm 1 m/s 649 mmHg 71%
    02:00 +20°C° 0 mm 1 m/s 648 mmHg 72%
    03:00 +19°C° 0 mm 1 m/s 648 mmHg 73%
    04:00 +19°C° 0 mm 1 m/s 648 mmHg 74%
    05:00 +19°C° 0 mm 1 m/s 649 mmHg 73%
    06:00 +20°C° 0 mm 1 m/s 649 mmHg 72%
    07:00 +20°C° 0 mm 1 m/s 650 mmHg 71%
    08:00 +22°C° 0 mm 1 m/s 650 mmHg 63%
    09:00 +24°C° 0 mm 1 m/s 651 mmHg 55%
    10:00 +26°C° 0 mm 1 m/s 651 mmHg 47%
    11:00 +27°C° 0 mm 1 m/s 651 mmHg 44%
    12:00 +28°C° 0 mm 1 m/s 650 mmHg 41%
    13:00 +29°C° 0 mm 1 m/s 650 mmHg 38%
    14:00 +29°C° 0 mm 1 m/s 649 mmHg 38%
    15:00 +29°C° 0 mm 1 m/s 649 mmHg 38%
    16:00 +29°C° 0 mm 1 m/s 648 mmHg 38%
    17:00 +27°C° 0,1 mm 1 m/s 648 mmHg 45%
    18:00 +25°C° 0,1 mm 1 m/s 648 mmHg 52%
    19:00 +22°C° 0,1 mm 1 m/s 648 mmHg 59%
    20:00 +22°C° 0,2 mm 1 m/s 648 mmHg 59%
    21:00 +21°C° 0,2 mm 1 m/s 649 mmHg 59%
    22:00 +21°C° 0,2 mm 1 m/s 649 mmHg 59%
    23:00 +20°C° 0,2 mm 1 m/s 649 mmHg 58%
    Voir plus